Tracking 35275 objects as of 9-Sep-2026
HD Live streaming from Space Station
objects crossing your sky now

QIANFAN-61

Track QIANFAN-61 now!
10-day predictions
QIANFAN-61 is classified as:


NORAD ID: 62791
Int'l Code: 2025-016G
Launch date: January 23, 2025
Source: People's Republic of China (PRC)
Launch site: Taiyaun Space Center, China (TSC)
Your satellite tracking list
Your tracking list is empty




NASA's NSSDC Master Catalog

Two Line Element Set (TLE):
1 62791U 25016G   26252.14266838  .00000060  00000-0  75138-4 0  9998
2 62791  88.9711  75.2968 0012918 283.8741  76.0972 13.51026864 83752
Source of the keplerian elements: AFSPC